Radiation Dose at Monitoring Post of Fukushima Daini Nuclear Power Station
Date,Time,MP-1(microSv/h),MP-2(microSv/h),MP-3(microSv/h),MP-4(microSv/h),MP-5(microSv/h),MP-6(microSv/h),MP-7(microSv/h),Wind Direction,Wind Velocity(m/s),Rain
2022/11/24,00:00,0.153,0.142,0.215,0.211,0.215,0.123,0.085,east,7.3,Yes
2022/11/24,00:10,0.151,0.141,0.213,0.210,0.214,0.123,0.084,east,6.8,Yes
2022/11/24,00:20,0.152,0.140,0.213,0.211,0.214,0.122,0.083,east,6.5,Yes
2022/11/24,00:30,0.152,0.141,0.212,0.210,0.213,0.123,0.084,east-northeast,7.4,Yes
2022/11/24,00:40,0.152,0.140,0.213,0.209,0.214,0.123,0.084,east,7.7,Yes
2022/11/24,00:50,0.151,0.140,0.212,0.210,0.214,0.123,0.084,east,9.2,Yes
2022/11/24,01:00,0.151,0.140,0.213,0.209,0.213,0.122,0.082,east-northeast,9.2,Yes
2022/11/24,01:10,0.151,0.139,0.211,0.208,0.213,0.121,0.082,east-northeast,7.5,Yes
2022/11/24,01:20,0.149,0.139,0.211,0.207,0.211,0.120,0.081,northeast,6.0,Yes
2022/11/24,01:30,0.150,0.138,0.210,0.206,0.212,0.120,0.080,east-northeast,7.5,Yes
2022/11/24,01:40,0.149,0.137,0.209,0.207,0.210,0.119,0.079,east-northeast,7.5,Yes
2022/11/24,01:50,0.149,0.137,0.209,0.206,0.210,0.118,0.078,northeast,7.4,Yes
2022/11/24,02:00,0.149,0.136,0.210,0.207,0.210,0.118,0.077,north-northeast,6.0,No
2022/11/24,02:10,0.148,0.136,0.210,0.205,0.209,0.118,0.078,north,5.3,Yes
2022/11/24,02:20,0.147,0.136,0.208,0.205,0.210,0.117,0.077,north-northwest,6.7,Yes
2022/11/24,02:30,0.148,0.137,0.208,0.206,0.209,0.118,0.078,north-northwest,8.6,Yes
2022/11/24,02:40,0.151,0.137,0.210,0.207,0.211,0.119,0.078,north-northwest,8.1,Yes
2022/11/24,02:50,0.150,0.138,0.210,0.208,0.210,0.120,0.080,northwest,9.6,Yes
2022/11/24,03:00,0.152,0.138,0.211,0.208,0.212,0.120,0.080,northwest,10.1,Yes
2022/11/24,03:10,0.151,0.139,0.211,0.207,0.212,0.121,0.081,northwest,8.6,Yes
2022/11/24,03:20,0.151,0.140,0.213,0.209,0.212,0.122,0.081,west-northwest,7.6,Yes
2022/11/24,03:30,0.153,0.140,0.212,0.208,0.213,0.123,0.081,west-northwest,8.1,Yes
2022/11/24,03:40,0.152,0.140,0.211,0.207,0.213,0.123,0.083,northwest,8.3,Yes
2022/11/24,03:50,0.153,0.140,0.212,0.208,0.213,0.122,0.082,northwest,8.1,Yes
2022/11/24,04:00,0.152,0.140,0.211,0.207,0.214,0.122,0.082,northwest,7.6,Yes
2022/11/24,04:10,0.152,0.140,0.211,0.207,0.211,0.122,0.082,northwest,10.1,Yes
2022/11/24,04:20,0.152,0.140,0.212,0.207,0.213,0.121,0.082,north-northwest,8.8,Yes
2022/11/24,04:30,0.153,0.139,0.213,0.208,0.211,0.122,0.081,northwest,11.2,Yes
2022/11/24,04:40,0.152,0.140,0.212,0.208,0.213,0.122,0.082,northwest,11.7,Yes
2022/11/24,04:50,0.151,0.141,0.211,0.209,0.214,0.123,0.081,northwest,11.1,Yes
2022/11/24,05:00,0.152,0.140,0.213,0.207,0.211,0.122,0.081,northwest,10.9,Yes
2022/11/24,05:10,0.150,0.139,0.211,0.207,0.211,0.121,0.080,northwest,9.8,Yes
2022/11/24,05:20,0.150,0.138,0.211,0.208,0.212,0.119,0.079,northwest,10.1,No
2022/11/24,05:30,0.150,0.137,0.210,0.206,0.210,0.120,0.079,northwest,9.5,No
2022/11/24,05:40,0.149,0.136,0.210,0.206,0.211,0.119,0.077,northwest,9.5,No
2022/11/24,05:50,0.150,0.137,0.209,0.205,0.211,0.118,0.078,northwest,10.9,No
2022/11/24,06:00,0.149,0.135,0.208,0.205,0.209,0.117,0.077,northwest,10.6,Yes
2022/11/24,06:10,0.149,0.136,0.210,0.206,0.211,0.118,0.078,northwest,10.0,Yes
2022/11/24,06:20,0.149,0.136,0.209,0.206,0.211,0.119,0.078,north-northwest,8.7,Yes
2022/11/24,06:30,0.148,0.136,0.209,0.205,0.210,0.119,0.077,north-northwest,8.7,No
2022/11/24,06:40,0.149,0.136,0.211,0.205,0.211,0.119,0.077,north-northwest,9.2,No
2022/11/24,06:50,0.150,0.136,0.209,0.206,0.209,0.118,0.077,northwest,9.8,Yes
2022/11/24,07:00,0.149,0.136,0.209,0.207,0.210,0.119,0.077,northwest,9.8,Yes
2022/11/24,07:10,0.149,0.136,0.210,0.206,0.210,0.119,0.078,northwest,9.8,No
2022/11/24,07:20,0.149,0.136,0.209,0.205,0.210,0.118,0.077,northwest,9.8,No
2022/11/24,07:30,0.149,0.135,0.209,0.205,0.211,0.118,0.077,northwest,8.6,No
2022/11/24,07:40,0.149,0.136,0.209,0.204,0.211,0.118,0.076,northwest,9.8,No
2022/11/24,07:50,0.149,0.135,0.210,0.204,0.210,0.116,0.077,north-northwest,9.2,No
2022/11/24,08:00,0.149,0.135,0.209,0.204,0.210,0.117,0.077,north-northwest,7.5,No
2022/11/24,08:10,0.149,0.135,0.209,0.206,0.209,0.117,0.076,north-northwest,8.4,No
2022/11/24,08:20,0.148,0.135,0.211,0.206,0.211,0.118,0.076,north-northwest,7.8,No
2022/11/24,08:30,0.149,0.135,0.210,0.205,0.209,0.117,0.076,north-northwest,9.2,No
2022/11/24,08:40,0.149,0.135,0.209,0.205,0.209,0.117,0.076,northwest,9.5,No
2022/11/24,08:50,0.148,0.135,0.209,0.206,0.212,0.117,0.076,north-northwest,8.3,No
2022/11/24,09:00,0.150,0.136,0.209,0.204,0.210,0.118,0.076,north-northwest,6.9,No
2022/11/24,09:10,0.148,0.134,0.210,0.206,0.210,0.117,0.076,north-northwest,6.4,No
2022/11/24,09:20,0.149,0.134,0.210,0.205,0.209,0.118,0.076,north-northwest,5.8,No
2022/11/24,09:30,0.149,0.134,0.209,0.205,0.211,0.118,0.076,northwest,8.1,No
2022/11/24,09:40,0.148,0.135,0.209,0.205,0.209,0.118,0.077,north-northwest,9.8,No
2022/11/24,09:50,0.149,0.135,0.209,0.206,0.209,0.117,0.076,north-northwest,8.6,No
2022/11/24,10:00,0.149,0.135,0.210,0.205,0.209,0.118,0.076,northwest,10.4,No
2022/11/24,10:10,0.149,0.135,0.210,0.206,0.209,0.117,0.076,north-northwest,10.1,No
2022/11/24,10:20,0.147,0.136,0.210,0.206,0.206,0.117,0.076,north-northwest,11.4,No
2022/11/24,10:30,0.149,0.135,0.208,0.206,0.211,0.118,0.076,north-northwest,10.0,No
2022/11/24,10:40,0.148,0.134,0.209,0.207,0.208,0.117,0.076,north-northwest,11.7,No
2022/11/24,10:50,0.148,0.136,0.208,0.205,0.210,0.118,0.076,north-northwest,11.7,No
2022/11/24,11:00,0.149,0.134,0.210,0.205,0.210,0.119,0.077,north-northwest,11.1,No
2022/11/24,11:10,0.148,0.136,0.211,0.205,0.209,0.118,0.076,north-northwest,9.3,No
2022/11/24,11:20,0.149,0.135,0.209,0.206,0.211,0.119,0.076,north-northwest,9.2,No
2022/11/24,11:30,0.149,0.136,0.210,0.205,0.208,0.118,0.076,north,8.1,No
2022/11/24,11:40,0.149,0.134,0.211,0.207,0.210,0.118,0.076,north,7.0,No
2022/11/24,11:50,0.150,0.134,0.210,0.206,0.211,0.118,0.077,north,6.7,No
2022/11/24,12:00,0.149,0.136,0.211,0.208,0.207,0.118,0.076,north,6.6,No
2022/11/24,12:10,0.150,0.135,0.210,0.206,0.211,0.118,0.077,north,7.7,No
2022/11/24,12:20,0.148,0.136,0.210,0.207,0.209,0.118,0.077,north,8.1,No
2022/11/24,12:30,0.149,0.135,0.212,0.206,0.210,0.119,0.076,north,8.7,No
2022/11/24,12:40,0.148,0.136,0.209,0.207,0.211,0.118,0.076,north,9.3,No
2022/11/24,12:50,0.149,0.135,0.211,0.206,0.209,0.118,0.076,north-northwest,10.6,No
2022/11/24,13:00,0.149,0.135,0.211,0.206,0.212,0.118,0.076,north-northwest,7.7,No
2022/11/24,13:10,0.150,0.135,0.211,0.208,0.210,0.118,0.076,north,7.3,No
2022/11/24,13:20,0.149,0.135,0.211,0.205,0.212,0.119,0.076,north,6.4,No
2022/11/24,13:30,0.149,0.136,0.212,0.206,0.211,0.119,0.077,north,6.6,No
2022/11/24,13:40,0.149,0.136,0.212,0.206,0.210,0.119,0.076,north,4.6,No
2022/11/24,13:50,0.150,0.135,0.212,0.207,0.210,-,0.076,north,5.0,No
2022/11/24,14:00,0.149,0.136,0.212,0.207,0.211,-,0.077,north-northwest,3.6,No
2022/11/24,14:10,0.151,0.136,0.211,0.208,0.210,-,0.076,north,3.9,No
2022/11/24,14:20,0.149,0.136,0.212,0.206,0.211,-,0.076,north-northwest,1.8,No
2022/11/24,14:30,0.150,0.135,0.212,0.208,0.210,-,0.076,north-northeast,2.1,No
2022/11/24,14:40,0.149,0.135,0.211,0.206,0.212,-,0.076,north,3.1,No
2022/11/24,14:50,0.150,0.135,0.212,0.208,0.211,-,0.077,north-northwest,4.5,No
2022/11/24,15:00,0.148,0.136,0.210,0.207,0.210,-,0.077,northwest,6.1,No
2022/11/24,15:10,0.149,0.136,0.211,0.208,0.210,0.118,0.076,north-northwest,4.4,No
2022/11/24,15:20,0.149,0.136,0.210,0.208,0.210,0.119,0.076,north,3.9,No
2022/11/24,15:30,0.150,0.136,0.211,0.207,0.211,0.117,0.076,north,4.5,No
2022/11/24,15:40,0.150,0.135,0.211,0.208,0.210,0.118,0.077,north,5.5,No
2022/11/24,15:50,0.149,0.136,0.211,0.207,0.212,0.117,0.076,northwest,2.7,No
2022/11/24,16:00,0.150,0.135,0.212,0.208,0.210,0.118,0.076,north,3.1,No
2022/11/24,16:10,0.149,0.136,0.212,0.207,0.211,0.118,0.076,north-northwest,3.4,No
2022/11/24,16:20,0.150,0.137,0.211,0.207,0.209,0.118,0.076,north,4.3,No
2022/11/24,16:30,0.150,0.136,0.212,0.208,0.212,0.119,0.076,north,4.9,No
2022/11/24,16:40,0.150,0.136,0.211,0.207,0.211,0.118,0.076,north,6.3,No
2022/11/24,16:50,0.150,0.136,0.211,0.208,0.211,0.118,0.076,north,6.7,No
2022/11/24,17:00,0.151,0.136,0.212,0.208,0.211,0.118,0.076,north-northwest,6.3,No
2022/11/24,17:10,0.151,0.136,0.212,0.208,0.210,0.118,0.077,north-northwest,6.6,No
2022/11/24,17:20,0.149,0.135,0.212,0.209,0.211,0.118,0.076,north-northwest,6.4,No
2022/11/24,17:30,0.150,0.135,0.211,0.208,0.210,0.118,0.076,north-northwest,5.9,No
2022/11/24,17:40,0.149,0.137,0.212,0.208,0.212,0.119,0.076,north-northwest,7.1,No
2022/11/24,17:50,0.150,0.136,0.211,0.208,0.211,0.119,0.077,north-northwest,7.3,No
2022/11/24,18:00,0.149,0.136,0.212,0.207,0.210,0.118,0.077,north-northwest,6.8,No
2022/11/24,18:10,0.149,0.136,0.213,0.209,0.213,0.118,0.076,north-northwest,7.3,No
2022/11/24,18:20,0.150,0.135,0.212,0.208,0.211,0.119,0.076,northwest,7.0,No
2022/11/24,18:30,0.150,0.136,0.212,0.207,0.209,0.118,0.076,northwest,7.1,No
2022/11/24,18:40,0.151,0.136,0.212,0.208,0.211,0.119,0.076,northwest,6.4,No
2022/11/24,18:50,0.150,0.136,0.212,0.208,0.210,0.119,0.077,northwest,6.1,No
2022/11/24,19:00,0.150,0.136,0.212,0.208,0.211,0.119,0.077,west-northwest,5.1,No
2022/11/24,19:10,0.150,0.135,0.213,0.208,0.209,0.119,0.077,west-northwest,4.1,No
2022/11/24,19:20,0.149,0.135,0.212,0.207,0.210,0.119,0.077,west-northwest,5.8,No
2022/11/24,19:30,0.151,0.136,0.212,0.209,0.212,0.118,0.076,northwest,6.1,No
2022/11/24,19:40,0.150,0.136,0.212,0.207,0.211,0.118,0.077,northwest,4.6,No
2022/11/24,19:50,0.149,0.136,0.212,0.208,0.211,0.119,0.076,northwest,3.6,No
2022/11/24,20:00,0.150,0.136,0.212,0.208,0.211,0.118,0.077,west-northwest,4.1,No
2022/11/24,20:10,0.150,0.136,0.212,0.208,0.210,0.118,0.077,northwest,4.8,No
2022/11/24,20:20,0.151,0.135,0.212,0.209,0.211,0.119,0.076,west-northwest,4.4,No
2022/11/24,20:30,0.151,0.136,0.212,0.208,0.210,0.118,0.076,west-northwest,3.8,No
2022/11/24,20:40,0.150,0.136,0.212,0.209,0.211,0.118,0.076,west-northwest,4.1,No
2022/11/24,20:50,0.151,0.136,0.212,0.208,0.211,0.118,0.077,west-northwest,4.3,No
2022/11/24,21:00,0.150,0.136,0.213,0.209,0.210,0.118,0.077,northwest,2.1,No
2022/11/24,21:10,0.150,0.136,0.211,0.208,0.211,0.118,0.076,northwest,2.8,No
2022/11/24,21:20,0.151,0.135,0.212,0.208,0.212,0.118,0.076,northwest,4.1,No
2022/11/24,21:30,0.150,0.135,0.212,0.208,0.211,0.118,0.076,west-northwest,4.5,No
2022/11/24,21:40,0.151,0.136,0.211,0.208,0.211,0.119,0.077,northwest,4.2,No
2022/11/24,21:50,0.150,0.135,0.212,0.209,0.211,0.118,0.077,west-northwest,4.3,No
2022/11/24,22:00,0.150,0.136,0.212,0.208,0.211,0.119,0.076,west-northwest,3.3,No
2022/11/24,22:10,0.150,0.136,0.213,0.208,0.210,0.119,0.076,west-northwest,3.4,No
2022/11/24,22:20,0.149,0.135,0.212,0.209,0.210,0.119,0.077,west-northwest,4.0,No
2022/11/24,22:30,0.150,0.136,0.212,0.209,0.212,0.118,0.077,west-northwest,4.6,No
2022/11/24,22:40,0.150,0.137,0.212,0.209,0.210,0.118,0.076,northwest,5.6,No
2022/11/24,22:50,0.150,0.135,0.214,0.209,0.211,0.119,0.076,northwest,6.0,No
2022/11/24,23:00,0.150,0.136,0.212,0.208,0.211,0.118,0.077,northwest,6.9,No
2022/11/24,23:10,0.150,0.135,0.211,0.207,0.210,0.119,0.076,northwest,5.9,No
2022/11/24,23:20,0.150,0.136,0.213,0.209,0.212,0.119,0.077,northwest,4.3,No
2022/11/24,23:30,0.151,0.136,0.212,0.208,0.210,0.118,0.077,northwest,5.3,No
2022/11/24,23:40,0.152,0.136,0.213,0.208,0.212,0.118,0.076,northwest,6.4,No
2022/11/24,23:50,0.150,0.136,0.211,0.208,0.212,0.119,0.076,northwest,6.4,No
